This demonstration page uses our WeatherBlox Daily Observations layout. Learn more.

Hourly Observations for November 21, 2019

Temp ( °F °C ) Dew Point ( °F °C ) Humidity (%) Winds ( mph kmh ) Pressure ( in mb ) Visibility ( mi km ) Precip ( " mm )
12:15 am 00:15 Cloudy 36 2 34 1.3 95 95 NW 14 22 29.94 1014 10 16.09344 0 0
12:35 am 00:35 Cloudy 36 2 34 1.1 94 94 NW 16 26 29.94 1014 10 16.09344 0 0
12:55 am 00:55 Cloudy 36 2 34 1 93 93 NW 14 22 29.94 1014 10 16.09344 0 0
1:15 am 01:15 Cloudy 36 2 33 0.8 92 92 NW 20 31 29.97 1015 10 16.09344 0 0
1:35 am 01:35 Cloudy 36 2 33 0.6 91 91 NNW 17 28 29.97 1015 10 16.09344 0 0
1:55 am 01:55 Cloudy 35 1.5 33 0.3 92 92 NNW 14 22 30 1016 10 16.09344 0 0
2:15 am 02:15 Cloudy 35 1.7 32 0.2 90 90 NNW 16 26 30.03 1017 10 16.09344 0 0
2:35 am 02:35 Cloudy 35 1.7 32 0 89 89 NNW 17 28 30.03 1017 10 16.09344 0 0
2:55 am 02:55 Cloudy 35 1.5 32 0 90 90 NNW 18 30 30.03 1017 10 16.09344 0 0
3:15 am 03:15 Cloudy 35 1.4 32 0 91 91 NW 14 22 30.06 1018 10 16.09344 0 0
3:35 am 03:35 Cloudy 35 1.5 32 0 90 90 NNW 22 35 30.09 1019 10 16.09344 0 0
3:55 am 03:55 Cloudy 34 1.3 32 0 91 91 NNW 20 31 30.06 1018 10 16.09344 0 0
4:15 am 04:15 Cloudy 34 1.3 32 0 91 91 NNW 18 30 30.09 1019 10 16.09344 0 0
4:35 am 04:35 Cloudy 34 1.3 32 0 91 91 NNW 14 22 30.09 1019 10 16.09344 0 0
4:55 am 04:55 Cloudy 34 1.3 32 -0.1 91 91 NNW 14 22 30.12 1020 10 16.09344 0 0
5:15 am 05:15 Cloudy 34 1.1 31 -0.3 91 91 NNW 17 28 30.12 1020 10 16.09344 0 0
5:35 am 05:35 Cloudy 34 1.1 31 -0.5 89 89 NNW 16 26 30.15 1021 10 16.09344 0 0
5:55 am 05:55 Cloudy 34 1.1 31 -0.3 91 91 NNW 14 22 30.15 1021 10 16.09344 0 0
6:15 am 06:15 Cloudy 34 1 32 -0.2 92 92 NNW 17 28 30.15 1021 10 16.09344 0 0
6:35 am 06:35 Cloudy 33 0.8 31 -0.5 91 91 N 17 28 30.15 1021 10 16.09344 0 0
6:55 am 06:55 Cloudy 33 0.7 31 -0.3 93 93 NNW 20 31 30.12 1020 10 16.09344 0 0
7:15 am 07:15 Cloudy 33 0.3 31 -0.6 94 94 N 18 30 30.15 1021 10 16.09344 0 0
7:35 am 07:35 Cloudy 33 0.3 31 -0.5 94 94 N 16 26 30.15 1021 10 16.09344 0 0
7:55 am 07:55 Cloudy 33 0.3 31 -0.5 94 94 NNW 16 26 30.15 1021 10 16.09344 0 0
8:15 am 08:15 Cloudy 33 0.3 31 -0.6 94 94 N 15 24 30.21 1023 10 16.09344 0 0
8:35 am 08:35 Cloudy 32 0.2 31 -0.8 93 93 N 14 22 30.21 1023 10 16.09344 0 0
8:55 am 08:55 Cloudy 32 0.1 30 -1.3 90 90 N 20 31 30.21 1023 10 16.09344 0 0
9:15 am 09:15 Cloudy 32 0.1 29 -1.4 90 90 N 15 24 30.24 1024 10 16.09344 0 0
9:35 am 09:35 Cloudy 32 0.1 29 -1.5 89 89 N 12 19 30.24 1024 10 16.09344 0 0
9:55 am 09:55 Cloudy 32 0.2 29 -1.6 88 88 N 14 22 30.24 1024 10 16.09344 0 0
10:15 am 10:15 Cloudy 32 0.2 29 -1.5 89 89 N 14 22 30.24 1024 10 16.09344 0 0
10:35 am 10:35 Cloudy 33 0.5 29 -1.4 87 87 N 12 19 30.24 1024 10 16.09344 0 0
10:55 am 10:55 Cloudy 33 0.6 30 -1.3 87 87 N 13 20 30.24 1024 10 16.09344 0 0
11:15 am 11:15 Cloudy 33 0.5 30 -1.1 89 89 NNW 14 22 30.27 1025 10 16.09344 0 0
11:35 am 11:35 Cloudy 32 0.2 29 -1.6 88 88 NNW 13 20 30.27 1025 10 16.09344 0 0
11:55 am 11:55 Cloudy 32 0.2 28 -2 85 85 NNW 14 22 30.27 1025 10 16.09344 0 0
12:15 pm 12:15 Cloudy 33 0.4 29 -1.9 85 85 N 13 20 30.27 1025 10 16.09344 0 0
12:35 pm 12:35 Cloudy 33 0.5 28 -2.1 83 83 NNW 15 24 30.27 1025 10 16.09344 0 0
12:55 pm 12:55 Cloudy 33 0.5 28 -2.1 83 83 NNW 16 26 30.24 1024 10 16.09344 0 0
1:15 pm 13:15 Cloudy 33 0.6 29 -1.7 85 85 N 14 22 30.24 1024 10 16.09344 0 0
1:35 pm 13:35 Cloudy 33 0.5 29 -1.6 86 86 N 14 22 30.24 1024 10 16.09344 0 0
1:55 pm 13:55 Cloudy 33 0.3 29 -1.6 87 87 N 10 17 30.24 1024 10 16.09344 0 0
2:15 pm 14:15 Cloudy 34 0.9 28 -2.1 81 81 N 13 20 30.21 1023 10 16.09344 0 0
2:35 pm 14:35 Cloudy 34 1.1 28 -2 80 80 N 13 20 30.21 1023 10 16.09344 0 0
2:55 pm 14:55 Mostly Cloudy 34 1.2 28 -2.1 79 79 N 14 22 30.21 1023 10 16.09344 0 0
3:15 pm 15:15 Mostly Cloudy 35 1.5 28 -2.1 77 77 N 13 20 30.21 1023 10 16.09344 0 0
3:35 pm 15:35 Partly Cloudy 34 1 28 -2.1 80 80 N 8 13 30.21 1023 10 16.09344 0 0
3:55 pm 15:55 Sunny 34 1 28 -2.2 79 79 N 10 17 30.21 1023 10 16.09344 0 0
4:15 pm 16:15 Mostly Cloudy 34 1.3 28 -2.1 78 78 N 12 19 30.21 1023 10 16.09344 0 0
4:35 pm 16:35 Cloudy 33 0.7 28 -2.4 80 80 N 10 17 30.24 1024 10 16.09344 0 0
4:55 pm 16:55 Cloudy 33 0.5 28 -2.4 81 81 N 14 22 30.24 1024 10 16.09344 0 0
5:15 pm 17:15 Cloudy 32 0 27 -2.7 82 82 NNE 12 19 30.24 1024 10 16.09344 0 0
5:35 pm 17:35 Cloudy 32 0 26 -3.1 80 80 NNE 12 19 30.24 1024 10 16.09344 0 0
5:55 pm 17:55 Cloudy 32 -0.2 27 -3 82 82 NNE 9 15 30.27 1025 10 16.09344 0 0
6:15 pm 18:15 Cloudy 31 -0.3 27 -3 82 82 NNE 13 20 30.24 1024 10 16.09344 0 0
6:35 pm 18:35 Cloudy 31 -0.7 27 -3 85 85 NNE 10 17 30.27 1025 10 16.09344 0 0
6:55 pm 18:55 Mostly Cloudy 30 -1 27 -3 86 86 NNE 7 11 30.27 1025 10 16.09344 0 0
7:15 pm 19:15 Partly Cloudy 30 -1.1 26 -3.1 86 86 N 7 11 30.27 1025 10 16.09344 0 0
7:35 pm 19:35 Partly Cloudy 29 -1.5 26 -3.2 88 88 N 6 9 30.3 1026 10 16.09344 0 0
7:55 pm 19:55 Partly Cloudy 29 -1.5 27 -3 90 90 N 8 13 30.3 1026 10 16.09344 0 0
8:15 pm 20:15 Mostly Cloudy 29 -1.6 26 -3.1 90 90 N 8 13 30.3 1026 10 16.09344 0 0
8:35 pm 20:35 Mostly Cloudy 29 -1.5 27 -3 90 90 N 8 13 30.3 1026 10 16.09344 0 0
8:55 pm 20:55 Partly Cloudy 30 -1.2 27 -3 88 88 N 9 15 30.33 1027 10 16.09344 0 0
9:15 pm 21:15 Partly Cloudy 29 -1.4 27 -3 89 89 NNE 9 15 30.33 1027 10 16.09344 0 0
9:35 pm 21:35 Mostly Cloudy 30 -1.2 26 -3.1 87 87 NNE 10 17 30.33 1027 10 16.09344 0 0
9:55 pm 21:55 Cloudy 30 -1.2 25 -3.8 83 83 NNE 12 19 30.33 1027 10 16.09344 0 0
10:15 pm 22:15 Mostly Cloudy 29 -1.5 25 -3.8 85 85 NNE 9 15 30.36 1028 10 16.09344 0 0
10:35 pm 22:35 Mostly Cloudy 29 -1.5 25 -3.9 84 84 NNE 8 13 30.36 1028 10 16.09344 0 0
10:55 pm 22:55 Mostly Cloudy 29 -1.5 24 -4.5 80 80 NNE 10 17 30.36 1028 10 16.09344 0 0
11:15 pm 23:15 Mostly Cloudy 29 -1.7 24 -4.6 81 81 NNE 8 13 30.36 1028 10 16.09344 0 0
11:35 pm 23:35 Cloudy 29 -1.6 24 -4.2 83 83 N 9 15 30.36 1028 10 16.09344 0 0
11:55 pm 23:55 Cloudy 29 -1.5 24 -4.2 82 82 N 6 9 30.36 1028 10 16.09344 0 0

Powered by AerisWeather